Time,TemperatureF,DewpointF,PressureIn,WindDirection,WindDirectionDegrees,WindSpeedMPH,WindSpeedGustMPH,Humidity,HourlyPrecipIn,Conditions,Clouds,dailyrainin,SoftwareType,DateUTC
2013-12-31 00:00:00,34.3,33.3,30.27,SSW,197,9.2,9.2,96,0.00,CLR,,0.00,WeatherDisplay:10.37,2013-12-31 05:00:00,
2013-12-31 00:01:00,34.3,33.3,30.27,SSE,167,8.1,8.1,96,0.00,CLR,,0.00,WeatherDisplay:10.37,2013-12-31 05:01:00,
2013-12-31 00:02:00,34.3,33.3,30.27,SSE,160,8.1,8.1,96,0.00,CLR,,0.00,WeatherDisplay:10.37,2013-12-31 05:02:00,
2013-12-31 00:07:00,34.2,33.2,30.27,SW,216,2.7,2.7,96,0.00,CLR,,0.00,WeatherDisplay:10.37,2013-12-31 05:07:00,
2013-12-31 00:12:00,34.2,33.2,30.27,SW,228,8.1,8.1,96,0.00,,,0.00,WeatherDisplay:10.37,2013-12-31 05:12:00,
2013-12-31 00:17:00,34.1,33.1,30.27,South,181,5.8,5.8,96,0.00,,,0.00,WeatherDisplay:10.37,2013-12-31 05:17:00,
2013-12-31 00:22:00,34.1,33.1,30.27,SSW,196,2.3,2.3,96,0.00,,,0.00,WeatherDisplay:10.37,2013-12-31 05:22:00,
2013-12-31 00:27:00,34.1,33.1,30.27,SSW,210,0.0,0.0,96,0.00,,,0.00,WeatherDisplay:10.37,2013-12-31 05:27:00,
2013-12-31 00:32:00,34.1,33.1,30.27,WSW,240,5.3,5.3,96,0.00,,,0.00,WeatherDisplay:10.37,2013-12-31 05:32:00,
2013-12-31 00:37:00,34.0,33.0,30.27,WSW,243,4.0,4.0,96,0.00,,,0.00,WeatherDisplay:10.37,2013-12-31 05:37:00,
2013-12-31 00:42:00,34.0,33.0,30.27,SW,229,0.0,0.0,96,0.00,CLR,,0.00,WeatherDisplay:10.37,2013-12-31 05:42:00,
2013-12-31 00:47:00,34.0,33.0,30.26,West,262,3.5,0.0,96,0.00,,,0.00,WeatherDisplay:10.37,2013-12-31 05:47:00,
2013-12-31 00:52:00,33.9,32.9,30.26,SW,233,0.0,0.0,96,0.00,,,0.00,WeatherDisplay:10.37,2013-12-31 05:52:00,
2013-12-31 00:57:00,33.9,32.9,30.26,SW,234,0.0,0.0,96,0.00,,,0.00,WeatherDisplay:10.37,2013-12-31 05:57:00,
2013-12-31 01:02:00,33.8,32.5,30.25,SW,234,0.0,0.0,95,0.00,,,0.00,WeatherDisplay:10.37,2013-12-31 06:02:00,
2013-12-31 01:07:00,33.7,32.4,30.26,SW,233,0.0,0.1,95,0.00,CLR,,0.00,WeatherDisplay:10.37,2013-12-31 06:07:00,
2013-12-31 01:12:00,33.6,32.3,30.26,SW,233,0.0,0.0,95,0.00,CLR,,0.00,WeatherDisplay:10.37,2013-12-31 06:12:00,
2013-12-31 01:17:00,33.4,32.1,30.25,SW,233,0.0,0.0,95,0.00,CLR,,0.00,WeatherDisplay:10.37,2013-12-31 06:17:00,
2013-12-31 01:22:00,33.3,32.0,30.25,SW,233,0.0,0.0,95,0.00,CLR,,0.00,WeatherDisplay:10.37,2013-12-31 06:22:00,
2013-12-31 01:27:00,33.2,31.9,30.26,SW,227,3.5,0.0,95,0.00,CLR,,0.00,WeatherDisplay:10.37,2013-12-31 06:27:00,
2013-12-31 01:32:00,33.1,31.8,30.26,SSW,207,5.8,5.8,95,0.00,CLR,,0.00,WeatherDisplay:10.37,2013-12-31 06:32:00,
2013-12-31 01:37:00,33.0,31.7,30.26,SSW,198,3.3,3.3,95,0.00,CLR,,0.00,WeatherDisplay:10.37,2013-12-31 06:37:00,
2013-12-31 01:42:00,32.9,31.6,30.26,SSW,210,3.5,3.5,95,0.00,CLR,,0.00,WeatherDisplay:10.37,2013-12-31 06:42:00,
2013-12-31 01:47:00,32.7,31.2,30.27,South,175,0.0,0.0,94,0.00,CLR,,0.00,WeatherDisplay:10.37,2013-12-31 06:47:00,
2013-12-31 01:52:00,32.6,31.1,30.27,South,175,0.0,0.0,94,0.00,CLR,,0.00,WeatherDisplay:10.37,2013-12-31 06:52:00,
2013-12-31 01:57:00,32.5,31.0,30.27,South,175,0.0,0.0,94,0.00,CLR,,0.00,WeatherDisplay:10.37,2013-12-31 06:57:00,
2013-12-31 02:02:00,32.4,30.9,30.27,South,175,1.2,0.0,94,0.00,CLR,,0.00,WeatherDisplay:10.37,2013-12-31 07:02:00,
2013-12-31 02:07:00,32.4,31.1,30.27,South,175,3.3,3.3,95,0.00,CLR,,0.00,WeatherDisplay:10.37,2013-12-31 07:07:00,
2013-12-31 02:12:00,32.4,31.1,30.27,South,174,1.1,1.4,95,0.00,CLR,,0.00,WeatherDisplay:10.37,2013-12-31 07:12:00,
2013-12-31 02:17:00,32.2,30.4,30.28,SW,214,4.0,4.0,93,0.00,CLR,,0.00,WeatherDisplay:10.37,2013-12-31 07:17:00,
2013-12-31 02:22:00,32.0,29.4,30.28,SW,214,0.0,0.0,90,0.00,CLR,,0.00,WeatherDisplay:10.37,2013-12-31 07:22:00,
2013-12-31 02:27:00,32.0,29.1,30.29,SW,214,0.0,0.0,89,0.00,CLR,,0.00,WeatherDisplay:10.37,2013-12-31 07:27:00,
2013-12-31 02:32:00,31.9,28.8,30.29,SW,214,0.0,0.0,88,0.00,CLR,,0.00,WeatherDisplay:10.37,2013-12-31 07:32:00,
2013-12-31 02:37:00,32.0,27.4,30.28,SW,214,1.3,1.3,83,0.00,CLR,,0.00,WeatherDisplay:10.37,2013-12-31 07:37:00,
2013-12-31 02:42:00,32.1,28.7,30.28,SSW,207,0.0,1.5,87,0.00,CLR,,0.00,WeatherDisplay:10.37,2013-12-31 07:42:00,
2013-12-31 02:47:00,32.2,28.5,30.28,SSW,207,0.0,0.0,86,0.00,CLR,,0.00,WeatherDisplay:10.37,2013-12-31 07:47:00,
2013-12-31 02:52:00,32.1,27.8,30.28,SSW,207,0.0,0.0,84,0.00,CLR,,0.00,WeatherDisplay:10.37,2013-12-31 07:52:00,
2013-12-31 02:57:00,32.1,27.2,30.29,SW,216,2.3,2.3,82,0.00,CLR,,0.00,WeatherDisplay:10.37,2013-12-31 07:57:00,
2013-12-31 03:02:00,32.1,28.7,30.30,WNW,288,1.2,0.0,87,0.00,CLR,,0.00,WeatherDisplay:10.37,2013-12-31 08:02:00,
2013-12-31 03:07:00,32.0,27.4,30.30,WNW,301,5.8,5.8,83,0.00,CLR,,0.00,WeatherDisplay:10.37,2013-12-31 08:07:00,
2013-12-31 03:12:00,32.1,26.6,30.30,WNW,301,4.6,4.6,80,0.00,CLR,,0.00,WeatherDisplay:10.37,2013-12-31 08:12:00,
2013-12-31 03:17:00,32.1,26.3,30.30,NW,321,4.6,4.6,79,0.00,CLR,,0.00,WeatherDisplay:10.37,2013-12-31 08:17:00,
2013-12-31 03:22:00,32.1,24.7,30.29,NW,318,5.8,5.8,74,0.00,CLR,,0.00,WeatherDisplay:10.37,2013-12-31 08:22:00,
2013-12-31 03:27:00,32.2,26.1,30.30,West,279,0.0,0.0,78,0.00,CLR,,0.00,WeatherDisplay:10.37,2013-12-31 08:27:00,
2013-12-31 03:32:00,32.2,25.8,30.30,NW,308,0.0,0.0,77,0.00,CLR,,0.00,WeatherDisplay:10.37,2013-12-31 08:32:00,
2013-12-31 03:37:00,32.2,27.0,30.30,West,260,3.5,3.5,81,0.00,CLR,,0.00,WeatherDisplay:10.37,2013-12-31 08:37:00,
2013-12-31 03:42:00,32.1,24.7,30.31,WNW,292,0.0,0.0,74,0.00,CLR,,0.00,WeatherDisplay:10.37,2013-12-31 08:42:00,
2013-12-31 03:47:00,32.0,24.0,30.30,NW,310,2.3,2.3,72,0.00,CLR,,0.00,WeatherDisplay:10.37,2013-12-31 08:47:00,
2013-12-31 03:52:00,32.0,24.6,30.30,NW,310,0.0,0.0,74,0.00,CLR,,0.00,WeatherDisplay:10.37,2013-12-31 08:52:00,
2013-12-31 03:57:00,32.0,24.6,30.31,NW,304,3.5,3.5,74,0.00,CLR,,0.00,WeatherDisplay:10.37,2013-12-31 08:57:00,
2013-12-31 04:02:00,32.0,25.0,30.31,WNW,303,0.0,0.0,75,0.00,CLR,,0.00,WeatherDisplay:10.37,2013-12-31 09:02:00,
2013-12-31 04:07:00,31.9,25.2,30.32,NW,306,0.0,0.0,76,0.00,CLR,,0.00,WeatherDisplay:10.37,2013-12-31 09:07:00,
2013-12-31 04:12:00,31.8,25.7,30.31,NW,307,2.3,2.3,78,0.00,CLR,,0.00,WeatherDisplay:10.37,2013-12-31 09:12:00,
2013-12-31 04:17:00,31.7,24.7,30.32,NW,306,2.3,2.3,75,0.00,CLR,,0.00,WeatherDisplay:10.37,2013-12-31 09:17:00,
2013-12-31 04:22:00,31.6,24.3,30.32,NW,306,2.3,2.3,74,0.00,CLR,,0.00,WeatherDisplay:10.37,2013-12-31 09:22:00,
2013-12-31 04:27:00,31.6,26.1,30.33,NW,306,0.0,0.0,80,0.00,CLR,,0.00,WeatherDisplay:10.37,2013-12-31 09:27:00,
2013-12-31 04:32:00,31.5,26.9,30.33,NW,306,0.0,0.0,83,0.00,CLR,,0.00,WeatherDisplay:10.37,2013-12-31 09:32:00,
2013-12-31 04:37:00,31.4,27.1,30.33,NW,306,0.0,0.0,84,0.00,CLR,,0.00,WeatherDisplay:10.37,2013-12-31 09:37:00,
2013-12-31 04:42:00,31.3,27.3,30.32,NW,306,0.0,0.0,85,0.00,CLR,,0.00,WeatherDisplay:10.37,2013-12-31 09:42:00,
2013-12-31 04:47:00,31.1,27.1,30.32,NW,306,0.0,0.0,85,0.00,CLR,,0.00,WeatherDisplay:10.37,2013-12-31 09:47:00,
2013-12-31 04:52:00,31.0,27.0,30.32,NW,306,1.2,1.2,85,0.00,CLR,,0.00,WeatherDisplay:10.37,2013-12-31 09:52:00,
2013-12-31 04:57:00,30.9,26.3,30.32,NW,311,0.0,0.0,83,0.00,CLR,,0.00,WeatherDisplay:10.37,2013-12-31 09:57:00,
2013-12-31 05:02:00,30.9,25.8,30.32,WSW,256,0.0,0.0,81,0.00,CLR,,0.00,WeatherDisplay:10.37,2013-12-31 10:02:00,
2013-12-31 05:07:00,30.9,25.8,30.32,West,272,1.2,1.2,81,0.00,CLR,,0.00,WeatherDisplay:10.37,2013-12-31 10:07:00,
2013-12-31 05:12:00,30.9,25.2,30.31,West,271,0.0,0.0,79,0.00,CLR,,0.00,WeatherDisplay:10.37,2013-12-31 10:12:00,
2013-12-31 05:17:00,30.9,25.2,30.31,West,271,0.0,0.0,79,0.00,CLR,,0.00,WeatherDisplay:10.37,2013-12-31 10:17:00,
2013-12-31 05:22:00,30.9,25.2,30.31,West,270,0.0,0.0,79,0.00,CLR,,0.00,WeatherDisplay:10.37,2013-12-31 10:22:00,
2013-12-31 05:27:00,30.9,24.5,30.32,West,270,1.2,0.0,77,0.00,CLR,,0.00,WeatherDisplay:10.37,2013-12-31 10:27:00,
2013-12-31 05:32:00,30.9,24.2,30.33,West,270,3.5,3.5,76,0.00,CLR,,0.00,WeatherDisplay:10.37,2013-12-31 10:32:00,
2013-12-31 05:37:00,30.9,23.6,30.33,West,270,3.5,3.5,74,0.00,CLR,,0.00,WeatherDisplay:10.37,2013-12-31 10:37:00,
2013-12-31 05:42:00,31.0,23.0,30.34,WNW,293,0.0,0.0,72,0.00,CLR,,0.00,WeatherDisplay:10.37,2013-12-31 10:42:00,
2013-12-31 05:47:00,31.1,23.1,30.34,WSW,248,0.0,0.0,72,0.00,CLR,,0.00,WeatherDisplay:10.37,2013-12-31 10:47:00,
2013-12-31 05:52:00,31.4,23.1,30.34,SW,229,4.0,4.0,71,0.00,CLR,,0.00,WeatherDisplay:10.37,2013-12-31 10:52:00,
2013-12-31 05:57:00,31.4,23.4,30.35,West,264,6.9,6.9,72,0.00,CLR,,0.00,WeatherDisplay:10.37,2013-12-31 10:57:00,
2013-12-31 06:02:00,31.4,23.4,30.35,SSW,210,4.0,4.0,72,0.00,CLR,,0.00,WeatherDisplay:10.37,2013-12-31 11:02:00,
2013-12-31 06:07:00,31.5,23.8,30.36,West,261,2.3,2.3,73,0.00,CLR,,0.00,WeatherDisplay:10.37,2013-12-31 11:07:00,
2013-12-31 06:12:00,31.4,24.1,30.36,West,268,3.5,3.5,74,0.00,CLR,,0.00,WeatherDisplay:10.37,2013-12-31 11:12:00,
2013-12-31 06:17:00,31.4,23.4,30.36,NW,314,3.5,3.5,72,0.00,CLR,,0.00,WeatherDisplay:10.37,2013-12-31 11:17:00,
2013-12-31 06:22:00,31.5,24.5,30.36,North,5,0.0,0.0,75,0.00,CLR,,0.00,WeatherDisplay:10.37,2013-12-31 11:22:00,
2013-12-31 06:27:00,31.5,23.5,30.36,NNW,342,4.6,4.6,72,0.00,CLR,,0.00,WeatherDisplay:10.37,2013-12-31 11:27:00,
2013-12-31 06:32:00,31.5,23.5,30.36,North,7,1.1,0.0,72,0.00,CLR,,0.00,WeatherDisplay:10.37,2013-12-31 11:32:00,
2013-12-31 06:37:00,31.6,23.9,30.36,NW,313,0.0,0.0,73,0.00,CLR,,0.00,WeatherDisplay:10.37,2013-12-31 11:37:00,
2013-12-31 06:42:00,31.6,23.6,30.36,NNW,330,0.0,0.0,72,0.00,CLR,,0.00,WeatherDisplay:10.37,2013-12-31 11:42:00,
2013-12-31 06:47:00,31.6,23.9,30.37,SSW,193,0.0,0.0,73,0.00,CLR,,0.00,WeatherDisplay:10.37,2013-12-31 11:47:00,
2013-12-31 06:52:00,31.6,24.3,30.37,SSW,213,2.3,2.3,74,0.00,CLR,,0.00,WeatherDisplay:10.37,2013-12-31 11:52:00,
2013-12-31 06:57:00,31.6,24.6,30.37,SSE,149,0.0,0.0,75,0.00,CLR,,0.00,WeatherDisplay:10.37,2013-12-31 11:57:00,
2013-12-31 07:02:00,31.6,24.3,30.38,NE,35,6.9,6.9,74,0.00,CLR,,0.00,WeatherDisplay:10.37,2013-12-31 12:02:00,
2013-12-31 07:07:00,31.5,23.8,30.38,NE,36,0.0,0.0,73,0.00,CLR,,0.00,WeatherDisplay:10.37,2013-12-31 12:07:00,
2013-12-31 07:12:00,31.5,23.8,30.38,NNW,346,2.3,2.3,73,0.00,CLR,,0.00,WeatherDisplay:10.37,2013-12-31 12:12:00,
2013-12-31 07:17:00,31.5,23.8,30.38,SE,129,5.4,5.4,73,0.00,CLR,,0.00,WeatherDisplay:10.37,2013-12-31 12:17:00,
2013-12-31 07:22:00,31.5,23.8,30.38,ESE,110,4.6,0.0,73,0.00,CLR,,0.00,WeatherDisplay:10.37,2013-12-31 12:22:00,
2013-12-31 07:27:00,31.5,23.8,30.38,NE,34,4.6,4.6,73,0.00,CLR,,0.00,WeatherDisplay:10.37,2013-12-31 12:27:00,
2013-12-31 07:32:00,31.4,24.4,30.39,SSE,156,4.6,4.6,75,0.00,CLR,,0.00,WeatherDisplay:10.37,2013-12-31 12:32:00,
2013-12-31 07:37:00,31.3,24.0,30.40,NW,307,3.5,3.5,74,0.00,CLR,,0.00,WeatherDisplay:10.37,2013-12-31 12:37:00,
2013-12-31 07:42:00,31.2,23.2,30.40,SW,230,3.5,3.5,72,0.00,CLR,,0.00,WeatherDisplay:10.37,2013-12-31 12:42:00,
2013-12-31 07:47:00,31.2,23.5,30.41,NE,44,10.4,10.4,73,0.00,CLR,,0.00,WeatherDisplay:10.37,2013-12-31 12:47:00,
2013-12-31 07:52:00,31.1,23.1,30.41,West,264,3.5,3.5,72,0.00,CLR,,0.00,WeatherDisplay:10.37,2013-12-31 12:52:00,
2013-12-31 07:57:00,31.2,22.9,30.42,SW,223,2.3,2.3,71,0.00,CLR,,0.00,WeatherDisplay:10.37,2013-12-31 12:57:00,
2013-12-31 08:02:00,31.3,23.3,30.42,SSE,162,9.2,9.2,72,0.00,CLR,,0.00,WeatherDisplay:10.37,2013-12-31 13:02:00,
2013-12-31 08:07:00,31.3,22.6,30.42,ESE,106,6.9,6.9,70,0.00,CLR,,0.00,WeatherDisplay:10.37,2013-12-31 13:07:00,
2013-12-31 08:12:00,31.3,23.0,30.42,ENE,64,4.6,4.6,71,0.00,CLR,,0.00,WeatherDisplay:10.37,2013-12-31 13:12:00,
2013-12-31 08:17:00,31.3,22.3,30.42,SSE,150,5.8,5.8,69,0.00,CLR,,0.00,WeatherDisplay:10.37,2013-12-31 13:17:00,
2013-12-31 08:22:00,31.4,23.1,30.42,ESE,112,5.4,5.4,71,0.00,CLR,,0.00,WeatherDisplay:10.37,2013-12-31 13:22:00,
2013-12-31 08:27:00,31.4,23.7,30.42,SE,132,2.3,0.0,73,0.00,CLR,,0.00,WeatherDisplay:10.37,2013-12-31 13:27:00,
2013-12-31 08:32:00,31.4,23.7,30.43,SE,127,1.2,0.0,73,0.00,CLR,,0.00,WeatherDisplay:10.37,2013-12-31 13:32:00,
2013-12-31 08:37:00,31.3,22.3,30.43,SE,131,9.2,9.2,69,0.00,CLR,,0.00,WeatherDisplay:10.37,2013-12-31 13:37:00,
2013-12-31 08:42:00,31.3,22.3,30.43,SE,139,6.9,6.9,69,0.00,CLR,,0.00,WeatherDisplay:10.37,2013-12-31 13:42:00,
2013-12-31 08:47:00,31.4,22.7,30.43,ENE,61,10.4,10.4,70,0.00,CLR,,0.00,WeatherDisplay:10.37,2013-12-31 13:47:00,
2013-12-31 08:52:00,31.4,22.1,30.43,ESE,112,6.9,6.9,68,0.00,CLR,,0.00,WeatherDisplay:10.37,2013-12-31 13:52:00,
2013-12-31 08:57:00,31.4,21.3,30.43,East,100,2.3,2.3,66,0.00,CLR,,0.00,WeatherDisplay:10.37,2013-12-31 13:57:00,
2013-12-31 09:02:00,31.4,21.7,30.44,NE,44,8.1,8.1,67,0.00,CLR,,0.00,WeatherDisplay:10.37,2013-12-31 14:02:00,
2013-12-31 09:08:00,31.5,20.7,30.44,North,7,6.9,6.9,64,0.00,CLR,,0.00,WeatherDisplay:10.37,2013-12-31 14:08:00,
2013-12-31 09:13:00,31.6,22.2,30.45,SSE,165,4.6,4.6,68,0.00,CLR,,0.00,WeatherDisplay:10.37,2013-12-31 14:13:00,
2013-12-31 09:18:00,31.6,22.6,30.46,South,183,2.3,2.3,69,0.00,CLR,,0.00,WeatherDisplay:10.37,2013-12-31 14:18:00,
2013-12-31 09:23:00,31.7,21.3,30.46,SSW,200,8.1,8.1,65,0.00,CLR,,0.00,WeatherDisplay:10.37,2013-12-31 14:23:00,
2013-12-31 09:28:00,31.7,21.6,30.47,ENE,60,0.0,0.0,66,0.00,CLR,,0.00,WeatherDisplay:10.37,2013-12-31 14:28:00,
2013-12-31 09:33:00,31.8,21.4,30.47,NW,316,2.3,2.3,65,0.00,CLR,,0.00,WeatherDisplay:10.37,2013-12-31 14:33:00,
2013-12-31 09:38:00,31.8,21.4,30.47,SE,139,1.1,1.1,65,0.00,CLR,,0.00,WeatherDisplay:10.37,2013-12-31 14:38:00,
2013-12-31 09:43:00,31.9,23.6,30.46,SSW,212,1.2,2.9,71,0.00,CLR,,0.00,WeatherDisplay:10.37,2013-12-31 14:43:00,
2013-12-31 09:48:00,31.9,21.8,30.46,ESE,117,4.6,4.6,66,0.00,CLR,,0.00,WeatherDisplay:10.37,2013-12-31 14:48:00,
2013-12-31 09:53:00,32.0,22.3,30.46,SE,141,4.6,4.6,67,0.00,CLR,,0.00,WeatherDisplay:10.37,2013-12-31 14:53:00,
2013-12-31 09:58:00,32.1,22.7,30.47,South,173,8.1,8.1,68,0.00,CLR,,0.00,WeatherDisplay:10.37,2013-12-31 14:58:00,
2013-12-31 10:03:00,32.2,24.5,30.48,SSW,198,6.9,6.9,73,0.00,CLR,,0.00,WeatherDisplay:10.37,2013-12-31 15:03:00,
2013-12-31 10:08:00,32.3,21.8,30.47,SSE,148,1.2,0.0,65,0.00,CLR,,0.00,WeatherDisplay:10.37,2013-12-31 15:08:00,
2013-12-31 10:13:00,32.4,21.2,30.48,SSE,148,4.6,4.6,63,0.00,CLR,,0.00,WeatherDisplay:10.37,2013-12-31 15:13:00,
2013-12-31 10:18:00,32.5,23.1,30.48,ESE,118,1.2,1.2,68,0.00,CLR,,0.00,WeatherDisplay:10.37,2013-12-31 15:18:00,
2013-12-31 10:23:00,32.5,20.9,30.48,SSE,151,5.8,5.8,62,0.00,CLR,,0.00,WeatherDisplay:10.37,2013-12-31 15:23:00,
2013-12-31 10:28:00,32.7,19.9,30.48,ESE,123,9.2,9.2,59,0.00,CLR,,0.00,WeatherDisplay:10.37,2013-12-31 15:28:00,
2013-12-31 10:33:00,32.9,19.3,30.49,South,177,9.2,9.2,57,0.00,CLR,,0.00,WeatherDisplay:10.37,2013-12-31 15:33:00,
2013-12-31 10:38:00,33.0,21.8,30.49,SSW,192,8.1,8.1,63,0.00,CLR,,0.00,WeatherDisplay:10.37,2013-12-31 15:38:00,
2013-12-31 10:43:00,33.2,17.9,30.49,SE,144,10.4,10.4,53,0.00,CLR,,0.00,WeatherDisplay:10.37,2013-12-31 15:43:00,
2013-12-31 10:48:00,33.4,18.9,30.49,South,169,9.2,9.2,55,0.00,CLR,,0.00,WeatherDisplay:10.37,2013-12-31 15:48:00,
2013-12-31 10:53:00,33.5,18.2,30.49,South,171,3.5,3.5,53,0.00,CLR,,0.00,WeatherDisplay:10.37,2013-12-31 15:53:00,
2013-12-31 10:58:00,33.6,19.1,30.48,ENE,76,4.6,4.6,55,0.00,CLR,,0.00,WeatherDisplay:10.37,2013-12-31 15:58:00,
2013-12-31 11:03:00,33.7,21.3,30.48,ESE,106,10.4,10.4,60,0.00,CLR,,0.00,WeatherDisplay:10.37,2013-12-31 16:03:00,
2013-12-31 11:08:00,33.9,20.3,30.49,SSE,162,8.1,8.1,57,0.00,CLR,,0.00,WeatherDisplay:10.37,2013-12-31 16:08:00,
2013-12-31 11:13:00,34.1,19.6,30.49,South,189,1.1,0.0,55,0.00,CLR,,0.00,WeatherDisplay:10.37,2013-12-31 16:13:00,
2013-12-31 11:18:00,34.1,18.3,30.49,East,94,8.1,8.1,52,0.00,CLR,,0.00,WeatherDisplay:10.37,2013-12-31 16:18:00,
2013-12-31 11:23:00,34.1,18.7,30.49,SSW,202,9.2,9.2,53,0.00,CLR,,0.00,WeatherDisplay:10.37,2013-12-31 16:23:00,
2013-12-31 11:28:00,34.3,21.8,30.49,SSW,195,5.4,5.4,60,0.00,CLR,,0.00,WeatherDisplay:10.37,2013-12-31 16:28:00,
2013-12-31 11:33:00,34.4,19.0,30.49,SW,227,12.0,12.0,53,0.00,CLR,,0.00,WeatherDisplay:10.37,2013-12-31 16:33:00,
2013-12-31 11:38:00,34.5,20.4,30.50,WSW,249,11.5,11.5,56,0.00,CLR,,0.00,WeatherDisplay:10.37,2013-12-31 16:38:00,
2013-12-31 11:43:00,34.7,21.4,30.50,SW,225,16.1,16.1,58,0.00,CLR,,0.00,WeatherDisplay:10.37,2013-12-31 16:43:00,
2013-12-31 11:48:00,34.8,18.0,30.50,NE,45,3.5,3.5,50,0.00,CLR,,0.00,WeatherDisplay:10.37,2013-12-31 16:48:00,
2013-12-31 11:53:00,34.9,21.2,30.50,SW,223,6.9,6.9,57,0.00,CLR,,0.00,WeatherDisplay:10.37,2013-12-31 16:53:00,
2013-12-31 11:58:00,35.0,18.7,30.50,East,80,9.2,9.2,51,0.00,CLR,,0.00,WeatherDisplay:10.37,2013-12-31 16:58:00,
2013-12-31 12:03:00,34.9,19.9,30.50,SW,225,6.9,6.9,54,0.00,CLR,,0.00,WeatherDisplay:10.37,2013-12-31 17:03:00,
2013-12-31 12:08:00,35.0,19.6,30.50,ENE,69,5.8,5.8,53,0.00,CLR,,0.00,WeatherDisplay:10.37,2013-12-31 17:08:00,
2013-12-31 12:13:00,35.1,16.9,30.50,NW,306,21.9,21.9,47,0.00,CLR,,0.00,WeatherDisplay:10.37,2013-12-31 17:13:00,
2013-12-31 12:18:00,35.1,17.8,30.49,NW,322,12.7,12.7,49,0.00,CLR,,0.00,WeatherDisplay:10.37,2013-12-31 17:18:00,
2013-12-31 12:23:00,35.0,19.1,30.50,NW,318,13.8,13.8,52,0.00,CLR,,0.00,WeatherDisplay:10.37,2013-12-31 17:23:00,
2013-12-31 12:28:00,35.0,20.9,30.49,South,173,10.4,10.4,56,0.00,CLR,,0.00,WeatherDisplay:10.37,2013-12-31 17:28:00,
2013-12-31 12:33:00,35.1,21.4,30.49,WNW,291,10.4,10.4,57,0.00,CLR,,0.00,WeatherDisplay:10.37,2013-12-31 17:33:00,
2013-12-31 12:38:00,35.2,20.6,30.48,NNW,333,10.4,10.4,55,0.00,CLR,,0.00,WeatherDisplay:10.37,2013-12-31 17:38:00,
2013-12-31 12:43:00,35.2,20.6,30.48,NNW,327,9.8,9.8,55,0.00,CLR,,0.00,WeatherDisplay:10.37,2013-12-31 17:43:00,
2013-12-31 12:48:00,35.3,22.4,30.48,WNW,289,8.1,8.1,59,0.00,CLR,,0.00,WeatherDisplay:10.37,2013-12-31 17:48:00,
2013-12-31 12:53:00,35.4,21.2,30.48,NNW,341,16.1,16.1,56,0.00,CLR,,0.00,WeatherDisplay:10.37,2013-12-31 17:53:00,
2013-12-31 12:58:00,35.4,21.7,30.48,North,2,11.5,11.5,57,0.00,CLR,,0.00,WeatherDisplay:10.37,2013-12-31 17:58:00,
2013-12-31 13:03:00,35.4,22.1,30.48,NNW,339,13.8,13.8,58,0.00,CLR,,0.00,WeatherDisplay:10.37,2013-12-31 18:03:00,
2013-12-31 13:08:00,35.4,23.3,30.47,NW,320,12.0,12.0,61,0.00,CLR,,0.00,WeatherDisplay:10.37,2013-12-31 18:08:00,
2013-12-31 13:13:00,35.4,22.1,30.47,NNE,24,8.1,8.1,58,0.00,CLR,,0.00,WeatherDisplay:10.37,2013-12-31 18:13:00,
2013-12-31 13:18:00,35.7,25.1,30.46,ESE,123,1.2,1.2,65,0.00,CLR,,0.00,WeatherDisplay:10.37,2013-12-31 18:18:00,
2013-12-31 13:23:00,35.8,22.9,30.46,East,86,6.9,6.9,59,0.00,CLR,,0.00,WeatherDisplay:10.37,2013-12-31 18:23:00,
2013-12-31 13:28:00,35.8,23.7,30.45,North,351,7.6,7.6,61,0.00,CLR,,0.00,WeatherDisplay:10.37,2013-12-31 18:28:00,
2013-12-31 13:33:00,35.7,23.9,30.45,ENE,62,9.2,9.2,62,0.00,CLR,,0.00,WeatherDisplay:10.37,2013-12-31 18:33:00,
2013-12-31 13:38:00,35.6,25.0,30.45,ESE,103,1.2,0.0,65,0.00,CLR,,0.00,WeatherDisplay:10.37,2013-12-31 18:38:00,
2013-12-31 13:43:00,35.7,23.2,30.44,ENE,63,8.1,8.1,60,0.00,CLR,,0.00,WeatherDisplay:10.37,2013-12-31 18:43:00,
2013-12-31 13:48:00,35.8,23.7,30.45,SE,144,8.1,8.1,61,0.00,CLR,,0.00,WeatherDisplay:10.37,2013-12-31 18:48:00,
2013-12-31 13:53:00,36.3,26.7,30.45,South,175,3.5,3.5,68,0.00,CLR,,0.00,WeatherDisplay:10.37,2013-12-31 18:53:00,
2013-12-31 13:58:00,36.4,23.0,30.44,NE,47,3.5,3.5,58,0.00,CLR,,0.00,WeatherDisplay:10.37,2013-12-31 18:58:00,
2013-12-31 14:03:00,36.6,24.0,30.43,SW,219,8.1,8.1,60,0.00,CLR,,0.00,WeatherDisplay:10.37,2013-12-31 19:03:00,
2013-12-31 14:08:00,36.9,23.9,30.43,SW,229,6.9,6.9,59,0.00,CLR,,0.00,WeatherDisplay:10.37,2013-12-31 19:08:00,
2013-12-31 14:13:00,37.0,24.0,30.43,West,262,6.9,6.9,59,0.00,CLR,,0.00,WeatherDisplay:10.37,2013-12-31 19:13:00,
2013-12-31 14:18:00,37.0,24.0,30.43,WNW,288,3.3,3.3,59,0.00,CLR,,0.00,WeatherDisplay:10.37,2013-12-31 19:18:00,
2013-12-31 14:23:00,37.2,23.8,30.43,NW,322,3.5,3.5,58,0.00,CLR,,0.00,WeatherDisplay:10.37,2013-12-31 19:23:00,
2013-12-31 14:28:00,37.4,23.1,30.43,West,281,8.1,8.1,56,0.00,CLR,,0.00,WeatherDisplay:10.37,2013-12-31 19:28:00,
2013-12-31 14:33:00,37.5,23.2,30.43,NW,308,8.1,8.1,56,0.00,CLR,,0.00,WeatherDisplay:10.37,2013-12-31 19:33:00,
2013-12-31 14:38:00,37.6,22.0,30.43,NNW,341,1.2,0.0,53,0.00,CLR,,0.00,WeatherDisplay:10.37,2013-12-31 19:38:00,
2013-12-31 14:43:00,37.7,21.2,30.43,North,360,0.0,0.0,51,0.00,CLR,,0.00,WeatherDisplay:10.37,2013-12-31 19:43:00,
2013-12-31 14:48:00,37.9,20.9,30.43,North,4,0.0,0.0,50,0.00,CLR,,0.00,WeatherDisplay:10.37,2013-12-31 19:48:00,
2013-12-31 14:53:00,38.0,22.8,30.43,WNW,300,2.3,2.3,54,0.00,CLR,,0.00,WeatherDisplay:10.37,2013-12-31 19:53:00,
2013-12-31 14:58:00,38.2,22.1,30.43,West,280,2.3,2.3,52,0.00,CLR,,0.00,WeatherDisplay:10.37,2013-12-31 19:58:00,
2013-12-31 15:03:00,38.4,22.3,30.43,NNW,339,2.3,2.3,52,0.00,CLR,,0.00,WeatherDisplay:10.37,2013-12-31 20:03:00,
2013-12-31 15:08:00,38.5,21.9,30.44,WNW,295,5.8,5.8,51,0.00,CLR,,0.00,WeatherDisplay:10.37,2013-12-31 20:08:00,
2013-12-31 15:13:00,38.5,21.5,30.44,WNW,303,6.9,6.9,50,0.00,CLR,,0.00,WeatherDisplay:10.37,2013-12-31 20:13:00,
2013-12-31 15:19:00,38.4,20.9,30.44,WNW,300,5.4,5.4,49,0.00,CLR,,0.00,WeatherDisplay:10.37,2013-12-31 20:19:00,
2013-12-31 15:24:00,38.3,21.3,30.44,NW,306,10.4,10.4,50,0.00,CLR,,0.00,WeatherDisplay:10.37,2013-12-31 20:24:00,
2013-12-31 15:29:00,38.3,23.5,30.44,West,266,2.3,0.0,55,0.00,CLR,,0.00,WeatherDisplay:10.37,2013-12-31 20:29:00,
2013-12-31 15:34:00,38.3,22.6,30.44,West,277,3.5,3.5,53,0.00,CLR,,0.00,WeatherDisplay:10.37,2013-12-31 20:34:00,
2013-12-31 15:39:00,38.3,23.1,30.44,SW,236,4.6,4.6,54,0.00,CLR,,0.00,WeatherDisplay:10.37,2013-12-31 20:39:00,
2013-12-31 15:44:00,38.2,22.6,30.44,WSW,243,5.3,5.3,53,0.00,CLR,,0.00,WeatherDisplay:10.37,2013-12-31 20:44:00,
2013-12-31 15:49:00,38.2,23.9,30.44,WNW,286,2.3,2.3,56,0.00,CLR,,0.00,WeatherDisplay:10.37,2013-12-31 20:49:00,
2013-12-31 15:54:00,38.1,24.2,30.44,WSW,248,3.5,3.5,57,0.00,CLR,,0.00,WeatherDisplay:10.37,2013-12-31 20:54:00,
2013-12-31 15:59:00,38.1,23.8,30.44,WSW,248,0.0,0.0,56,0.00,CLR,,0.00,WeatherDisplay:10.37,2013-12-31 20:59:00,
2013-12-31 16:04:00,38.1,23.8,30.44,SW,235,4.0,4.0,56,0.00,CLR,,0.00,WeatherDisplay:10.37,2013-12-31 21:04:00,
2013-12-31 16:09:00,38.1,23.3,30.44,West,272,4.6,4.6,55,0.00,CLR,,0.00,WeatherDisplay:10.37,2013-12-31 21:09:00,
2013-12-31 16:14:00,38.0,23.7,30.45,West,279,0.0,0.0,56,0.00,CLR,,0.00,WeatherDisplay:10.37,2013-12-31 21:14:00,
2013-12-31 16:19:00,37.9,22.7,30.44,West,279,0.0,0.0,54,0.00,CLR,,0.00,WeatherDisplay:10.37,2013-12-31 21:19:00,
2013-12-31 16:24:00,37.9,23.2,30.44,West,279,0.0,0.0,55,0.00,CLR,,0.00,WeatherDisplay:10.37,2013-12-31 21:24:00,
2013-12-31 16:29:00,37.8,23.1,30.45,West,279,0.0,0.0,55,0.00,CLR,,0.00,WeatherDisplay:10.37,2013-12-31 21:29:00,
2013-12-31 16:34:00,37.7,22.1,30.45,West,279,0.0,0.0,53,0.00,CLR,,0.00,WeatherDisplay:10.37,2013-12-31 21:34:00,
2013-12-31 16:39:00,37.5,22.3,30.44,West,279,0.0,0.0,54,0.00,CLR,,0.00,WeatherDisplay:10.37,2013-12-31 21:39:00,
2013-12-31 16:44:00,37.4,22.3,30.45,West,279,0.0,0.0,54,0.00,CLR,,0.00,WeatherDisplay:10.37,2013-12-31 21:44:00,
2013-12-31 16:49:00,37.2,22.5,30.45,West,279,0.0,0.0,55,0.00,CLR,,0.00,WeatherDisplay:10.37,2013-12-31 21:49:00,
2013-12-31 16:54:00,37.0,22.3,30.44,West,279,0.0,0.0,55,0.00,CLR,,0.00,WeatherDisplay:10.37,2013-12-31 21:54:00,
2013-12-31 16:59:00,37.0,22.3,30.44,WNW,284,0.0,0.0,55,0.00,CLR,,0.00,WeatherDisplay:10.37,2013-12-31 21:59:00,
2013-12-31 17:04:00,36.8,22.1,30.44,WNW,284,0.0,0.0,55,0.00,CLR,,0.00,WeatherDisplay:10.37,2013-12-31 22:04:00,
2013-12-31 17:09:00,36.7,22.0,30.44,WNW,284,0.0,0.0,55,0.00,CLR,,0.00,WeatherDisplay:10.37,2013-12-31 22:09:00,
2013-12-31 17:14:00,36.5,22.3,30.45,NE,34,0.0,0.0,56,0.00,CLR,,0.00,WeatherDisplay:10.37,2013-12-31 22:14:00,
2013-12-31 17:19:00,36.3,22.5,30.44,NE,48,2.3,2.3,57,0.00,CLR,,0.00,WeatherDisplay:10.37,2013-12-31 22:19:00,
2013-12-31 17:24:00,36.0,22.2,30.45,NE,56,1.2,0.0,57,0.00,CLR,,0.00,WeatherDisplay:10.37,2013-12-31 22:24:00,
2013-12-31 17:29:00,35.8,22.0,30.44,NE,56,0.0,0.0,57,0.00,CLR,,0.00,WeatherDisplay:10.37,2013-12-31 22:29:00,
2013-12-31 17:34:00,35.6,21.9,30.45,NE,56,2.3,0.0,57,0.00,CLR,,0.00,WeatherDisplay:10.37,2013-12-31 22:34:00,
2013-12-31 17:39:00,35.4,22.1,30.45,NE,56,0.0,0.0,58,0.00,CLR,,0.00,WeatherDisplay:10.37,2013-12-31 22:39:00,
2013-12-31 17:44:00,35.2,22.3,30.45,NE,55,2.3,2.3,59,0.00,CLR,,0.00,WeatherDisplay:10.37,2013-12-31 22:44:00,
2013-12-31 17:49:00,35.1,21.8,30.45,NE,56,1.2,1.4,58,0.00,CLR,,0.00,WeatherDisplay:10.37,2013-12-31 22:49:00,
2013-12-31 17:54:00,34.9,21.6,30.45,NE,56,2.3,2.3,58,0.00,CLR,,0.00,WeatherDisplay:10.37,2013-12-31 22:54:00,
2013-12-31 17:59:00,34.8,21.5,30.45,NE,56,1.2,1.2,58,0.00,CLR,,0.00,WeatherDisplay:10.37,2013-12-31 22:59:00,
2013-12-31 18:04:00,34.7,21.4,30.45,NE,44,3.5,3.5,58,0.00,CLR,,0.00,WeatherDisplay:10.37,2013-12-31 23:04:00,
2013-12-31 18:09:00,34.6,22.1,30.45,NE,51,0.0,0.0,60,0.00,CLR,,0.00,WeatherDisplay:10.37,2013-12-31 23:09:00,
2013-12-31 18:14:00,34.5,22.0,30.45,NE,54,3.5,0.0,60,0.00,CLR,,0.00,WeatherDisplay:10.37,2013-12-31 23:14:00,
2013-12-31 18:19:00,34.3,22.2,30.45,NE,54,2.3,2.3,61,0.00,CLR,,0.00,WeatherDisplay:10.37,2013-12-31 23:19:00,
2013-12-31 18:24:00,34.1,22.0,30.45,NE,54,0.0,0.0,61,0.00,CLR,,0.00,WeatherDisplay:10.37,2013-12-31 23:24:00,
2013-12-31 18:29:00,34.0,22.0,30.45,NE,54,0.0,0.0,61,0.00,CLR,,0.00,WeatherDisplay:10.37,2013-12-31 23:29:00,
2013-12-31 18:34:00,33.9,21.9,30.45,NE,54,0.0,0.2,61,0.00,CLR,,0.00,WeatherDisplay:10.37,2013-12-31 23:34:00,
2013-12-31 18:39:00,33.8,21.8,30.46,ENE,59,3.5,3.5,61,0.00,CLR,,0.00,WeatherDisplay:10.37,2013-12-31 23:39:00,
2013-12-31 18:44:00,33.7,22.1,30.46,ENE,59,0.0,0.0,62,0.00,CLR,,0.00,WeatherDisplay:10.37,2013-12-31 23:44:00,
2013-12-31 18:49:00,33.6,21.6,30.46,ENE,60,2.3,2.3,61,0.00,CLR,,0.00,WeatherDisplay:10.37,2013-12-31 23:49:00,
2013-12-31 18:54:00,33.6,21.6,30.46,ENE,60,0.0,0.0,61,0.00,CLR,,0.00,WeatherDisplay:10.37,2013-12-31 23:54:00,
2013-12-31 18:59:00,33.5,21.5,30.46,ENE,60,2.3,2.3,61,0.00,CLR,,0.00,WeatherDisplay:10.37,2013-12-31 23:59:00,
2013-12-31 19:04:00,33.5,21.5,30.47,ENE,60,0.0,0.0,61,0.00,CLR,,0.00,WeatherDisplay:10.37,2014-01-01 00:04:00,
2013-12-31 19:09:00,33.4,21.4,30.47,ENE,60,0.0,0.0,61,0.00,CLR,,0.00,WeatherDisplay:10.37,2014-01-01 00:09:00,
2013-12-31 19:14:00,33.3,20.9,30.47,ENE,61,2.3,2.3,60,0.00,CLR,,0.00,WeatherDisplay:10.37,2014-01-01 00:14:00,
2013-12-31 19:19:00,33.3,20.5,30.47,ENE,62,3.5,3.5,59,0.00,CLR,,0.00,WeatherDisplay:10.37,2014-01-01 00:19:00,
2013-12-31 19:24:00,33.3,20.5,30.46,ENE,69,0.0,0.0,59,0.00,CLR,,0.00,WeatherDisplay:10.37,2014-01-01 00:24:00,
2013-12-31 19:29:00,33.4,21.0,30.47,ENE,69,2.3,2.3,60,0.00,CLR,,0.00,WeatherDisplay:10.37,2014-01-01 00:29:00,
2013-12-31 19:34:00,33.4,21.0,30.47,ENE,69,0.0,0.0,60,0.00,CLR,,0.00,WeatherDisplay:10.37,2014-01-01 00:34:00,
2013-12-31 19:39:00,33.3,21.7,30.47,ENE,69,2.3,2.3,62,0.00,CLR,,0.00,WeatherDisplay:10.37,2014-01-01 00:39:00,
2013-12-31 19:44:00,33.2,20.8,30.48,ENE,69,0.0,0.0,60,0.00,CLR,,0.00,WeatherDisplay:10.37,2014-01-01 00:44:00,
2013-12-31 19:49:00,33.2,20.4,30.48,ENE,69,0.0,0.0,59,0.00,CLR,,0.00,WeatherDisplay:10.37,2014-01-01 00:49:00,
2013-12-31 19:54:00,33.1,20.7,30.49,ENE,69,0.0,0.0,60,0.00,CLR,,0.00,WeatherDisplay:10.37,2014-01-01 00:54:00,
2013-12-31 19:59:00,33.0,21.0,30.49,ENE,69,0.0,0.0,61,0.00,CLR,,0.00,WeatherDisplay:10.37,2014-01-01 00:59:00,
2013-12-31 20:04:00,33.0,21.0,30.49,ENE,69,0.0,0.0,61,0.00,CLR,,0.00,WeatherDisplay:10.37,2014-01-01 01:04:00,
2013-12-31 20:09:00,32.9,20.5,30.49,ENE,69,0.0,0.0,60,0.00,CLR,,0.00,WeatherDisplay:10.37,2014-01-01 01:09:00,
2013-12-31 20:14:00,32.8,22.0,30.49,ENE,69,0.0,0.0,64,0.00,CLR,,0.00,WeatherDisplay:10.37,2014-01-01 01:14:00,
2013-12-31 20:19:00,32.7,22.2,30.48,ENE,69,0.0,0.0,65,0.00,CLR,,0.00,WeatherDisplay:10.37,2014-01-01 01:19:00,
2013-12-31 20:24:00,32.5,22.0,30.48,ENE,69,0.0,0.0,65,0.00,CLR,,0.00,WeatherDisplay:10.37,2014-01-01 01:24:00,
2013-12-31 20:29:00,32.3,22.2,30.48,ENE,69,0.0,0.0,66,0.00,CLR,,0.00,WeatherDisplay:10.37,2014-01-01 01:29:00,
2013-12-31 20:34:00,32.1,22.0,30.48,ENE,69,0.0,0.0,66,0.00,CLR,,0.00,WeatherDisplay:10.37,2014-01-01 01:34:00,
2013-12-31 20:39:00,31.9,22.5,30.48,ENE,69,0.0,0.0,68,0.00,CLR,,0.00,WeatherDisplay:10.37,2014-01-01 01:39:00,
2013-12-31 20:44:00,31.8,22.4,30.48,ENE,69,0.0,0.0,68,0.00,CLR,,0.00,WeatherDisplay:10.37,2014-01-01 01:44:00,
2013-12-31 20:49:00,31.6,22.2,30.48,ENE,69,0.0,0.0,68,0.00,CLR,,0.00,WeatherDisplay:10.37,2014-01-01 01:49:00,
2013-12-31 20:54:00,31.5,21.8,30.48,ENE,69,0.0,0.0,67,0.00,CLR,,0.00,WeatherDisplay:10.37,2014-01-01 01:54:00,
2013-12-31 20:59:00,31.4,22.1,30.48,ENE,69,0.0,0.0,68,0.00,CLR,,0.00,WeatherDisplay:10.37,2014-01-01 01:59:00,
2013-12-31 21:04:00,31.3,22.0,30.48,ENE,69,0.0,0.0,68,0.00,CLR,,0.00,WeatherDisplay:10.37,2014-01-01 02:04:00,
2013-12-31 21:09:00,31.2,22.2,30.48,ENE,69,0.0,0.0,69,0.00,CLR,,0.00,WeatherDisplay:10.37,2014-01-01 02:09:00,
2013-12-31 21:14:00,31.1,22.5,30.48,ENE,69,0.0,0.0,70,0.00,CLR,,0.00,WeatherDisplay:10.37,2014-01-01 02:14:00,
2013-12-31 21:19:00,31.0,22.7,30.48,ENE,69,0.0,0.0,71,0.00,CLR,,0.00,WeatherDisplay:10.37,2014-01-01 02:19:00,
2013-12-31 21:24:00,30.9,22.9,30.48,ENE,69,0.0,0.0,72,0.00,CLR,,0.00,WeatherDisplay:10.37,2014-01-01 02:24:00,
2013-12-31 21:29:00,30.8,23.5,30.48,ENE,69,0.0,0.0,74,0.00,CLR,,0.00,WeatherDisplay:10.37,2014-01-01 02:29:00,
2013-12-31 21:34:00,30.6,23.0,30.48,ENE,69,0.0,0.0,73,0.00,CLR,,0.00,WeatherDisplay:10.37,2014-01-01 02:34:00,
2013-12-31 21:39:00,30.5,23.2,30.48,ENE,69,0.0,0.0,74,0.00,CLR,,0.00,WeatherDisplay:10.37,2014-01-01 02:39:00,
2013-12-31 21:44:00,30.4,23.1,30.48,ENE,69,0.0,0.0,74,0.00,CLR,,0.00,WeatherDisplay:10.37,2014-01-01 02:44:00,
2013-12-31 21:49:00,30.2,23.2,30.49,ENE,69,0.0,0.0,75,0.00,CLR,,0.00,WeatherDisplay:10.37,2014-01-01 02:49:00,
2013-12-31 21:54:00,30.1,23.1,30.48,ENE,69,0.0,0.0,75,0.00,CLR,,0.00,WeatherDisplay:10.37,2014-01-01 02:54:00,
2013-12-31 21:59:00,30.0,23.0,30.48,ENE,69,0.0,0.0,75,0.00,CLR,,0.00,WeatherDisplay:10.37,2014-01-01 02:59:00,
2013-12-31 22:04:00,29.8,22.8,30.48,ENE,69,0.0,0.0,75,0.00,CLR,,0.00,WeatherDisplay:10.37,2014-01-01 03:04:00,
2013-12-31 22:09:00,29.8,22.8,30.48,ENE,69,0.0,0.0,75,0.00,CLR,,0.00,WeatherDisplay:10.37,2014-01-01 03:09:00,
2013-12-31 22:14:00,29.7,23.1,30.48,ENE,69,0.0,0.0,76,0.00,CLR,,0.00,WeatherDisplay:10.37,2014-01-01 03:14:00,
2013-12-31 22:19:00,29.6,23.3,30.48,ENE,69,0.0,0.0,77,0.00,CLR,,0.00,WeatherDisplay:10.37,2014-01-01 03:19:00,
2013-12-31 22:24:00,29.6,23.3,30.48,ENE,69,0.0,0.0,77,0.00,CLR,,0.00,WeatherDisplay:10.37,2014-01-01 03:24:00,
2013-12-31 22:29:00,29.5,23.2,30.48,ENE,69,0.0,0.0,77,0.00,CLR,,0.00,WeatherDisplay:10.37,2014-01-01 03:29:00,
2013-12-31 22:34:00,29.4,23.4,30.48,ENE,69,0.0,0.0,78,0.00,CLR,,0.00,WeatherDisplay:10.37,2014-01-01 03:34:00,
2013-12-31 22:39:00,29.4,23.7,30.48,ENE,69,0.0,0.0,79,0.00,CLR,,0.00,WeatherDisplay:10.37,2014-01-01 03:39:00,
2013-12-31 22:44:00,29.3,23.3,30.48,ENE,69,0.0,0.0,78,0.00,CLR,,0.00,WeatherDisplay:10.37,2014-01-01 03:44:00,
2013-12-31 22:49:00,29.2,23.2,30.49,ENE,69,0.0,0.0,78,0.00,CLR,,0.00,WeatherDisplay:10.37,2014-01-01 03:49:00,
2013-12-31 22:54:00,29.2,23.2,30.49,ENE,69,0.0,0.0,78,0.00,CLR,,0.00,WeatherDisplay:10.37,2014-01-01 03:54:00,
2013-12-31 22:59:00,29.1,23.4,30.48,ENE,69,1.2,1.2,79,0.00,CLR,,0.00,WeatherDisplay:10.37,2014-01-01 03:59:00,
2013-12-31 23:04:00,29.1,23.1,30.48,ENE,69,0.0,0.0,78,0.00,CLR,,0.00,WeatherDisplay:10.37,2014-01-01 04:04:00,
2013-12-31 23:09:00,29.1,23.1,30.49,ENE,69,0.0,0.0,78,0.00,CLR,,0.00,WeatherDisplay:10.37,2014-01-01 04:09:00,
2013-12-31 23:14:00,29.1,23.4,30.49,ENE,69,0.0,0.0,79,0.00,CLR,,0.00,WeatherDisplay:10.37,2014-01-01 04:14:00,
2013-12-31 23:19:00,28.9,22.9,30.48,ENE,69,0.0,0.0,78,0.00,CLR,,0.00,WeatherDisplay:10.37,2014-01-01 04:19:00,
2013-12-31 23:24:00,28.9,23.2,30.48,ENE,69,0.0,0.0,79,0.00,CLR,,0.00,WeatherDisplay:10.37,2014-01-01 04:24:00,
2013-12-31 23:29:00,28.9,23.2,30.48,ENE,69,0.0,0.0,79,0.00,CLR,,0.00,WeatherDisplay:10.37,2014-01-01 04:29:00,
2013-12-31 23:34:00,28.8,23.1,30.48,ENE,69,0.0,0.0,79,0.00,CLR,,0.00,WeatherDisplay:10.37,2014-01-01 04:34:00,
2013-12-31 23:39:00,28.8,23.1,30.48,ENE,69,0.0,0.0,79,0.00,CLR,,0.00,WeatherDisplay:10.37,2014-01-01 04:39:00,
2013-12-31 23:44:00,28.7,23.3,30.48,ENE,70,0.0,0.0,80,0.00,CLR,,0.00,WeatherDisplay:10.37,2014-01-01 04:44:00,
2013-12-31 23:49:00,28.7,23.6,30.48,ENE,70,0.0,0.0,81,0.00,CLR,,0.00,WeatherDisplay:10.37,2014-01-01 04:49:00,
2013-12-31 23:54:00,28.6,23.5,30.48,ENE,70,0.0,0.0,81,0.00,CLR,,0.00,WeatherDisplay:10.37,2014-01-01 04:54:00,
2013-12-31 23:59:00,28.6,23.8,30.48,ENE,70,0.0,0.0,82,0.00,CLR,,0.00,WeatherDisplay:10.37,2014-01-01 04:59:00,